ニート彗星

207P/NEAT (2024)

English version
Home page
Updated on June 27, 2024

---------------------------------------------------------------------

・ プロフィール

・ 写真集

・ 軌道要素

Epoch 2024 Mar. 31.0 TT = JDT 2460400.5
T 2024 Jan. 31.81680 TT                                 Rudenko
q   0.9382486            (2000.0)            P               Q
n   0.12878476     Peri.  272.99164     -0.35584881     -0.93291267
a   3.8835276      Node   198.15573     +0.91228486     -0.33395566
e   0.7584030      Incl.   10.20130     +0.20275096     -0.13471292
P   7.65
>From 790 observations 2000 Oct. 7-2024 Mar. 19, mean residual 0".9.

・ 星図

・ 光度変化

        m1 = 16.0 + 5 logΔ + 10.0 log r

---------------------------------------------------------------------

軌道要素はM.P.E.C. 2024-F34に掲載されたものです。
星図はステラナビゲータ Ver.10 (アストロアーツ) で作成したものです。
光度グラフはComet for Windowsで作成したものです。

---------------------------------------------------------------------

Copyright(C) Seiichi Yoshida (comet@aerith.net). All rights reserved.